• In Romania
  • List of Countries
  • For 7 days
  • Water Temperature
  • Satellite Maps
  • Weather Map
  • Weather Widgets
  • user-avatar
    Login

    Hourly Weather Staraya Toropa

    Today, 25 April, Wednesday

    Time Temperature Precipitation Wind Pressure Humidity
    00:00 +6°C° 0 mm 2 mps 736 mmHg 95%
    01:00 +6°C° 0 mm 2 mps 736 mmHg 95%
    02:00 +5°C° 0 mm 2 mps 736 mmHg 96%
    03:00 +5°C° 0 mm 2 mps 736 mmHg 94%
    04:00 +5°C° 0 mm 2 mps 736 mmHg 93%
    05:00 +5°C° 0 mm 2 mps 735 mmHg 92%
    06:00 +5°C° 0.3 mm 3 mps 735 mmHg 89%
    07:00 +7°C° 0.3 mm 3 mps 735 mmHg 87%
    08:00 +6°C° 0.3 mm 4 mps 735 mmHg 84%
    09:00 +7°C° 0.2 mm 4 mps 735 mmHg 80%
    10:00 +8°C° 0.2 mm 4 mps 735 mmHg 75%
    11:00 +9°C° 0.2 mm 5 mps 735 mmHg 71%
    12:00 +10°C° 0.1 mm 5 mps 735 mmHg 66%
    13:00 +10°C° 0.1 mm 5 mps 735 mmHg 62%
    14:00 +12°C° 0.1 mm 5 mps 735 mmHg 58%
    15:00 +10°C° 0 mm 5 mps 735 mmHg 58%
    16:00 +11°C° 0 mm 4 mps 734 mmHg 58%
    17:00 +11°C° 0 mm 4 mps 734 mmHg 58%
    18:00 +10°C° 0 mm 3 mps 734 mmHg 64%
    19:00 +8°C° 0 mm 2 mps 734 mmHg 70%
    20:00 +7°C° 0 mm 2 mps 734 mmHg 77%
    21:00 +7°C° 0.2 mm 2 mps 733 mmHg 80%
    22:00 +7°C° 0.2 mm 2 mps 733 mmHg 83%
    23:00 +7°C° 0.2 mm 2 mps 732 mmHg 86%

    Tomorrow, 26 April, Thursday

    Time Temperature Precipitation Wind Pressure Humidity
    00:00 +7°C° 0.9 mm 2 mps 731 mmHg 89%
    01:00 +7°C° 0.9 mm 2 mps 731 mmHg 92%
    02:00 +7°C° 0.9 mm 2 mps 730 mmHg 95%
    03:00 +7°C° 0.3 mm 3 mps 730 mmHg 94%
    04:00 +8°C° 0.3 mm 3 mps 730 mmHg 93%
    05:00 +7°C° 0.3 mm 4 mps 729 mmHg 92%
    06:00 +7°C° 0.2 mm 4 mps 730 mmHg 90%
    07:00 +7°C° 0.2 mm 5 mps 730 mmHg 88%
    08:00 +7°C° 0.2 mm 6 mps 731 mmHg 86%
    09:00 +7°C° 0.2 mm 6 mps 732 mmHg 84%
    10:00 +7°C° 0.2 mm 6 mps 732 mmHg 81%
    11:00 +5°C° 0.2 mm 6 mps 733 mmHg 79%
    12:00 +8°C° 0.1 mm 6 mps 734 mmHg 74%
    13:00 +9°C° 0.1 mm 6 mps 734 mmHg 68%
    14:00 +10°C° 0.1 mm 6 mps 735 mmHg 63%
    15:00 +10°C° 0.2 mm 5 mps 735 mmHg 63%
    16:00 +10°C° 0.2 mm 5 mps 736 mmHg 63%
    17:00 +11°C° 0.2 mm 4 mps 736 mmHg 63%
    18:00 +8°C° 0 mm 4 mps 736 mmHg 70%
    19:00 +8°C° 0 mm 3 mps 737 mmHg 76%
    20:00 +7°C° 0 mm 2 mps 737 mmHg 83%
    21:00 +7°C° 0.3 mm 3 mps 738 mmHg 84%
    22:00 +5°C° 0.3 mm 3 mps 738 mmHg 86%
    23:00 +5°C° 0.3 mm 3 mps 738 mmHg 88%

    Day after tomorrow, 27 April, Friday

    Time Temperature Precipitation Wind Pressure Humidity
    00:00 +5°C° 0 mm 3 mps 738 mmHg 90%
    01:00 +4°C° 0 mm 3 mps 739 mmHg 93%
    02:00 +5°C° 0 mm 2 mps 739 mmHg 95%
    03:00 +4°C° 0 mm 2 mps 739 mmHg 95%
    04:00 +4°C° 0 mm 2 mps 740 mmHg 95%
    05:00 +4°C° 0 mm 2 mps 740 mmHg 96%
    06:00 +4°C° 0 mm 3 mps 740 mmHg 91%
    07:00 +5°C° 0 mm 3 mps 741 mmHg 86%
    08:00 +7°C° 0 mm 3 mps 741 mmHg 82%
    09:00 +8°C° 0 mm 3 mps 741 mmHg 74%
    10:00 +10°C° 0 mm 3 mps 741 mmHg 66%
    11:00 +11°C° 0 mm 3 mps 742 mmHg 58%
    12:00 +12°C° 0.1 mm 4 mps 742 mmHg 54%
    13:00 +13°C° 0.1 mm 4 mps 742 mmHg 50%
    14:00 +13°C° 0.1 mm 4 mps 741 mmHg 46%
    15:00 +13°C° 0.2 mm 3 mps 741 mmHg 48%
    16:00 +13°C° 0.2 mm 3 mps 741 mmHg 50%
    17:00 +12°C° 0.2 mm 3 mps 741 mmHg 52%
    18:00 +12°C° 0.2 mm 2 mps 741 mmHg 61%
    19:00 +9°C° 0.2 mm 2 mps 742 mmHg 69%
    20:00 +8°C° 0.2 mm 1 mps 742 mmHg 78%
    21:00 +7°C° 0.3 mm 2 mps 742 mmHg 81%
    22:00 +7°C° 0.3 mm 2 mps 743 mmHg 85%
    23:00 +6°C° 0.3 mm 2 mps 743 mmHg 88%

    28 April, Saturday

    Time Temperature Precipitation Wind Pressure Humidity
    00:00 +6°C° 0 mm 2 mps 743 mmHg 90%
    01:00 +5°C° 0 mm 2 mps 744 mmHg 93%
    02:00 +4°C° 0 mm 2 mps 744 mmHg 95%
    03:00 +4°C° 0 mm 2 mps 744 mmHg 95%
    04:00 +4°C° 0 mm 2 mps 745 mmHg 96%
    05:00 +3°C° 0 mm 2 mps 745 mmHg 97%
    06:00 +5°C° 0 mm 2 mps 745 mmHg 90%
    07:00 +6°C° 0 mm 2 mps 746 mmHg 83%
    08:00 +8°C° 0 mm 2 mps 746 mmHg 75%
    09:00 +9°C° 0 mm 2 mps 746 mmHg 69%
    10:00 +10°C° 0 mm 3 mps 747 mmHg 62%
    11:00 +11°C° 0 mm 3 mps 747 mmHg 55%
    12:00 +12°C° 0 mm 3 mps 747 mmHg 51%
    13:00 +13°C° 0 mm 3 mps 747 mmHg 47%
    14:00 +14°C° 0 mm 3 mps 747 mmHg 42%
    15:00 +14°C° 0 mm 3 mps 747 mmHg 42%
    16:00 +14°C° 0 mm 3 mps 747 mmHg 43%
    17:00 +15°C° 0 mm 2 mps 747 mmHg 43%
    18:00 +13°C° 0 mm 2 mps 747 mmHg 50%
    19:00 +10°C° 0 mm 2 mps 747 mmHg 57%
    20:00 +9°C° 0 mm 1 mps 747 mmHg 64%
    21:00 +8°C° 0 mm 2 mps 747 mmHg 66%
    22:00 +7°C° 0 mm 2 mps 747 mmHg 68%
    23:00 +7°C° 0 mm 2 mps 747 mmHg 70%

    29 April, Sunday

    Time Temperature Precipitation Wind Pressure Humidity
    00:00 +8°C° 0 mm 2 mps 746 mmHg 70%
    01:00 +8°C° 0 mm 3 mps 746 mmHg 69%
    02:00 +8°C° 0 mm 3 mps 746 mmHg 69%
    03:00 +8°C° 0.2 mm 4 mps 745 mmHg 70%
    04:00 +8°C° 0.2 mm 4 mps 745 mmHg 72%
    05:00 +8°C° 0.2 mm 4 mps 744 mmHg 74%
    06:00 +10°C° 0.3 mm 4 mps 744 mmHg 77%
    07:00 +10°C° 0.3 mm 4 mps 744 mmHg 81%
    08:00 +11°C° 0.3 mm 4 mps 743 mmHg 85%
    09:00 +12°C° 0.1 mm 4 mps 743 mmHg 81%
    10:00 +13°C° 0.1 mm 4 mps 743 mmHg 77%
    11:00 +15°C° 0.1 mm 4 mps 743 mmHg 73%
    12:00 +16°C° 0.1 mm 5 mps 743 mmHg 66%
    13:00 +17°C° 0.1 mm 5 mps 743 mmHg 59%
    14:00 +19°C° 0.1 mm 6 mps 743 mmHg 51%
    15:00 +17°C° 0 mm 5 mps 743 mmHg 49%
    16:00 +17°C° 0 mm 5 mps 743 mmHg 47%
    17:00 +18°C° 0 mm 4 mps 743 mmHg 45%
    18:00 +14°C° 0 mm 3 mps 744 mmHg 54%
    19:00 +12°C° 0 mm 3 mps 744 mmHg 63%
    20:00 +10°C° 0 mm 2 mps 744 mmHg 72%
    21:00 +10°C° 0 mm 1 mps 745 mmHg 76%
    22:00 +9°C° 0 mm 1 mps 745 mmHg 81%
    23:00 +8°C° 0 mm 1 mps 746 mmHg 85%

    30 April, Monday

    Time Temperature Precipitation Wind Pressure Humidity
    00:00 +8°C° 0 mm 1 mps 746 mmHg 87%
    01:00 +7°C° 0 mm 1 mps 746 mmHg 89%
    02:00 +6°C° 0 mm 0 mps 746 mmHg 91%
    03:00 +6°C° 0 mm 0 mps 747 mmHg 91%
    04:00 +5°C° 0 mm 0 mps 747 mmHg 91%
    05:00 +5°C° 0 mm 0 mps 747 mmHg 91%
    06:00 +8°C° 0 mm 0 mps 747 mmHg 82%
    07:00 +11°C° 0 mm 1 mps 747 mmHg 72%
    08:00 +13°C° 0 mm 1 mps 747 mmHg 63%
    09:00 +15°C° 0 mm 1 mps 747 mmHg 56%
    10:00 +18°C° 0 mm 1 mps 747 mmHg 49%
    11:00 +20°C° 0 mm 1 mps 747 mmHg 42%
    12:00 +21°C° 0 mm 1 mps 747 mmHg 40%
    13:00 +22°C° 0 mm 1 mps 746 mmHg 38%
    14:00 +22°C° 0 mm 1 mps 746 mmHg 35%
    15:00 +21°C° 0 mm 2 mps 746 mmHg 39%
    16:00 +21°C° 0 mm 2 mps 745 mmHg 42%
    17:00 +21°C° 0 mm 2 mps 745 mmHg 45%
    18:00 +19°C° 0 mm 2 mps 745 mmHg 54%
    19:00 +17°C° 0 mm 2 mps 744 mmHg 62%
    20:00 +15°C° 0 mm 2 mps 744 mmHg 71%
    21:00 +15°C° 0.1 mm 2 mps 744 mmHg 75%
    22:00 +14°C° 0.1 mm 3 mps 744 mmHg 79%
    23:00 +13°C° 0.1 mm 3 mps 744 mmHg 83%
    Show more